Location: Az?znagar
(16.8373°N, 80.5091°E)
Time: 17:08:09
(UTC+00:00)

Cosmos 921 Rocket - Pass Details

Date: 04 December 2021
Orbit: 571 x 632 km, 75.8° (Epoch: 17 January)

Event Time Altitude Azimuth Distance (km) Brightness Sun altitude
Rises 00:13:54 0° 347° (NNW) 2,886 6.2 -9.5°
Reaches altitude 10° 00:16:08 10° 347° (NNW) 1,987 5.3 -9.0°
Maximum altitude 00:20:35 84° 259° (W) 634 3.1 -8.0°
Drops below altitude 10° 00:25:04 10° 171° (S) 2,002 6.1 -7.0°
Sets 00:27:19 0° 171° (S) 2,910 7.0 -6.5°
